Weather History for Cardiff-Wales, United Kingdom

Change the Weather History Date:

Thursday, March 28, 2013

  Actual Average Record
Temperature  
Mean Temperature 33 °F -  
Max Temperature 42 °F 53 °F 64 °F (2012)
Min Temperature 24 °F 40 °F 24 °F (2013)
Degree Days  
Heating Degree Days 32    
Moisture  
Dew Point 23 °F    
Average Humidity 63    
Maximum Humidity 80    
Minimum Humidity 49    
Precipitation  
Precipitation 0.00 in 0.08 in - ()
Sea Level Pressure  
Sea Level Pressure 29.91 in    
Wind  
Wind Speed 10 mph ()    
Max Wind Speed 16 mph    
Max Gust Speed -    
Visibility 6.2 miles    
Events      
Averages and records for this station are not official NWS values.
T = Trace of Precipitation, MM = Missing Value Source: Averaged Metar Reports

Daily Weather History Graph

Daily Weather History Graph

Search for Another Location

Airport:

Trip Planner

Search our weather history database for the weather conditions in past years. The results will help you decide how hot, cold, wet, or windy it might be!

Date:

Astronomy

Mar. 28, 2013 Rise Set
Actual Time 5:57 AM GMT 6:40 PM GMT
Civil Twilight 5:24 AM GMT 7:13 PM GMT
Nautical Twilight 4:44 AM GMT 7:54 PM GMT
Astronomical Twilight 4:01 AM GMT 8:36 PM GMT
Moon 8:31 PM GMT (3/28) 6:05 AM GMT (3/28)
Length of Visible Light 13h 49m
Length of Day
12h 42m
Full, 98% of the Moon is Illuminated
Mar 28
Full
Apr 3
Last Quarter
Apr 10
New
Apr 18
First Quarter
Apr 25
Full

Hourly Weather History & Observations

Time (GMT) Temp. Windchill Dew Point Humidity Pressure Visibility Wind Dir Wind Speed Gust Speed Precip Events Conditions
12:20 AM 30.2 °F 21.3 °F 23.0 °F 75% 29.92 in 6.2 mi NNE 10.4 mph - N/A   Unknown
12:50 AM 30.2 °F 21.3 °F 21.2 °F 69% 29.92 in 6.2 mi NE 10.4 mph - N/A   Unknown
1:20 AM 30.2 °F 21.9 °F 21.2 °F 69% 29.92 in - NE 9.2 mph - N/A   Clear
1:50 AM 28.4 °F 19.7 °F 21.2 °F 74% 29.92 in 6.2 mi NNE 9.2 mph - N/A   Unknown
2:20 AM 28.4 °F 19.7 °F 21.2 °F 74% 29.92 in - NNE 9.2 mph - N/A   Clear
2:50 AM 28.4 °F 20.4 °F 21.2 °F 74% 29.92 in - NNE 8.1 mph - N/A   Clear
3:20 AM 26.6 °F 18.2 °F 21.2 °F 80% 29.89 in 6.2 mi NNE 8.1 mph - N/A   Unknown
3:50 AM 28.4 °F 20.4 °F 21.2 °F 74% 29.89 in 6.2 mi NNE 8.1 mph - N/A   Unknown
4:20 AM 26.6 °F 19.1 °F 19.4 °F 74% 29.89 in 6.2 mi NNE 6.9 mph - N/A   Unknown
4:50 AM 26.6 °F 18.2 °F 19.4 °F 74% 29.89 in 6.2 mi NNE 8.1 mph - N/A   Unknown
5:20 AM 24.8 °F 16.1 °F 19.4 °F 80% 29.89 in - North 8.1 mph - N/A   Clear
5:50 AM 26.6 °F 18.2 °F 21.2 °F 80% 29.89 in 6.2 mi North 8.1 mph - N/A   Scattered Clouds
6:20 AM 28.4 °F 21.2 °F 21.2 °F 74% 29.89 in 6.2 mi North 6.9 mph - N/A   Mostly Cloudy
6:50 AM 28.4 °F 21.2 °F 23.0 °F 80% 29.89 in 6.2 mi NNE 6.9 mph - N/A   Mostly Cloudy
7:20 AM 30.2 °F 21.9 °F 23.0 °F 75% 29.89 in 6.2 mi NE 9.2 mph - N/A   Scattered Clouds
7:50 AM 32.0 °F 23.0 °F 24.8 °F 75% 29.92 in - NE 11.5 mph - N/A   Clear
8:20 AM 33.8 °F 24.8 °F 24.8 °F 70% 29.89 in - NE 12.7 mph - N/A   Clear
8:50 AM 35.6 °F 27.1 °F 26.6 °F 70% 29.89 in 6.2 mi NE 12.7 mph - N/A   Partly Cloudy
9:20 AM 35.6 °F 27.5 °F 26.6 °F 70% 29.89 in 6.2 mi NE 11.5 mph - N/A   Partly Cloudy
9:50 AM 37.4 °F 28.9 °F 26.6 °F 65% 29.89 in 6.2 mi NE 13.8 mph - N/A   Scattered Clouds
10:20 AM 39.2 °F 32.0 °F 26.6 °F 61% 29.89 in 6.2 mi ENE 11.5 mph - N/A   Partly Cloudy
10:50 AM 39.2 °F 31.6 °F 26.6 °F 61% 29.89 in 6.2 mi ENE 12.7 mph - N/A   Scattered Clouds
11:20 AM 41.0 °F 33.9 °F 26.6 °F 57% 29.89 in 6.2 mi ENE 12.7 mph - N/A   Scattered Clouds
11:50 AM 39.2 °F 31.2 °F 26.6 °F 61% 29.89 in 6.2 mi ENE 13.8 mph - N/A   Scattered Clouds
12:20 PM 41.0 °F 33.5 °F 24.8 °F 53% 29.89 in 6.2 mi East 13.8 mph - N/A   Partly Cloudy
12:50 PM 42.8 °F 35.4 °F 24.8 °F 49% 29.89 in 6.2 mi ENE 15.0 mph - N/A   Partly Cloudy
1:20 PM 42.8 °F 36.2 °F 24.8 °F 49% 29.89 in 6.2 mi East 12.7 mph - N/A   Scattered Clouds
1:50 PM 41.0 °F 33.5 °F 23.0 °F 49% 29.89 in 6.2 mi ENE 13.8 mph - N/A   Mostly Cloudy
2:20 PM 41.0 °F 32.8 °F 23.0 °F 49% 29.89 in 6.2 mi ENE 16.1 mph - N/A   Mostly Cloudy
2:50 PM 39.2 °F 31.2 °F 23.0 °F 52% 29.89 in 6.2 mi ENE 13.8 mph - N/A   Scattered Clouds
3:20 PM 41.0 °F 33.5 °F 23.0 °F 49% 29.89 in 6.2 mi East 13.8 mph - N/A   Scattered Clouds
3:50 PM 41.0 °F 33.1 °F 23.0 °F 49% 29.89 in 6.2 mi ENE 15.0 mph - N/A   Mostly Cloudy
4:20 PM 39.2 °F 30.8 °F 23.0 °F 52% 29.92 in 6.2 mi East 15.0 mph - N/A   Mostly Cloudy
4:50 PM 39.2 °F 31.2 °F 23.0 °F 52% 29.92 in 6.2 mi ENE 13.8 mph - N/A   Mostly Cloudy
5:20 PM 39.2 °F 31.6 °F 24.8 °F 56% 29.92 in 6.2 mi ENE 12.7 mph - N/A   Mostly Cloudy
5:50 PM 37.4 °F 29.3 °F 24.8 °F 60% 29.92 in 6.2 mi ENE 12.7 mph - N/A   Overcast
6:20 PM 37.4 °F 29.3 °F 24.8 °F 60% 29.95 in 6.2 mi ENE 12.7 mph - N/A   Mostly Cloudy
6:50 PM 37.4 °F 28.9 °F 24.8 °F 60% 29.95 in 6.2 mi ENE 13.8 mph - N/A   Mostly Cloudy
7:20 PM 37.4 °F 28.9 °F 24.8 °F 60% 29.95 in 6.2 mi ENE 13.8 mph - N/A   Mostly Cloudy
7:50 PM 37.4 °F 29.3 °F 23.0 °F 56% 29.92 in 6.2 mi ENE 12.7 mph - N/A   Mostly Cloudy
8:20 PM 35.6 °F 26.2 °F 24.8 °F 65% 29.92 in 6.2 mi ENE 15.0 mph - N/A   Mostly Cloudy
8:50 PM 35.6 °F 26.6 °F 23.0 °F 60% 29.92 in 6.2 mi ENE 13.8 mph - N/A   Mostly Cloudy
9:20 PM 35.6 °F 27.5 °F 23.0 °F 60% 29.92 in 6.2 mi East 11.5 mph - N/A   Mostly Cloudy
9:50 PM 35.6 °F 26.6 °F 23.0 °F 60% 29.92 in 6.2 mi East 13.8 mph - N/A   Mostly Cloudy
10:20 PM 35.6 °F 27.1 °F 21.2 °F 56% 29.92 in 6.2 mi East 12.7 mph - N/A   Overcast
10:50 PM 35.6 °F 26.6 °F 19.4 °F 52% 29.92 in 6.2 mi East 13.8 mph - N/A   Mostly Cloudy
11:20 PM 35.6 °F 27.1 °F 21.2 °F 56% 29.92 in 6.2 mi East 12.7 mph - N/A   Mostly Cloudy
11:50 PM 35.6 °F 27.1 °F 21.2 °F 56% 29.92 in 6.2 mi East 12.7 mph - N/A   Overcast